Home   Weather   Metlakatla   Past weeks

Flag for USA Past Weather in Metlakatla, Alaska, USA — Yesterday and Last 2 Weeks

Now
44 °F

Mostly cloudy.


Feels Like: 42 °F
Forecast: 42 / 50 °F
Wind: 5 mph from Southwest

Location: Metlakatla - Metlakatla Seaplane Base

Current Time: Apr 27, 2017 at 10:41:58 pm

Latest Report: Apr 27, 2017 at 9:56 pm


Visibility: 10 mi

Pressure: 30.22 "Hg

Humidity: 79%

Dew Point: 38 °F

Location of MetlakatlaLocation

Past Weather in Metlakatla — Graph

°F

Metlakatla Temperature Yesterday

Maximum temperature yesterday: 52 °F (at 10:56 am)
Minimum temperature yesterday: 43 °F (at 11:22 pm)
Average temperature yesterday: 47 °F

High & Low Weather Summary for the Past Weeks

 TemperatureHumidityPressure
High64 °F (Apr 22, 4:56 pm)100% (Apr 25, 2:56 am)30.33 "Hg (Apr 25, 2:56 am)
Low39 °F (Apr 25, 4:32 am)29% (Apr 22, 4:56 pm)29.43 "Hg (Apr 26, 3:56 am)
Average48 °F76%29.87 "Hg
* Reported Apr 12 8:56 pm — Apr 27 8:56 pm, Metlakatla, Weather by CustomWeather, © 2017

Note: Actual official high and low records may vary slightly from our data, if they occured in-between our weather recording intervals... More about our weather records

Advertising

Metlakatla Weather History for the Previous 24 Hours

Scroll right to see more
 ConditionsComfort  
Time TempWeatherWind HumidityBarometerVisibility
8:56 pm
Thu, Apr 27
45 °FMostly cloudy.7 mph76%30.20 "Hg10 mi
5:15 pm46 °FMore clouds than sun.8 mph76%30.16 "Hg10 mi
4:56 pm46 °FLight rain. Cloudy.6 mph83%30.13 "Hg10 mi
3:56 pm47 °FCloudy.10 mph74%30.11 "Hg10 mi
2:56 pm47 °FLight rain. More clouds than sun.6 mph71%30.10 "Hg10 mi
1:56 pm47 °FMostly cloudy.12 mph71%30.08 "Hg10 mi
12:56 pm48 °FMostly cloudy.8 mph66%30.06 "Hg10 mi
10:56 am44 °FLight rain. Cloudy.9 mph85%30.02 "Hg8 mi
10:13 am46 °FMostly cloudy.12 mph71%30.03 "Hg10 mi
9:56 am46 °FCloudy.10 mph73%29.99 "Hg10 mi
8:56 am45 °FMostly cloudy.7 mph80%29.98 "Hg10 mi
8:24 am45 °FLight rain. More clouds than sun.6 mph81%29.99 "Hg10 mi
7:56 am44 °FMostly cloudy.6 mph82%29.96 "Hg10 mi
6:56 am42 °FMostly cloudy.6 mph79%29.94 "Hg10 mi
5:56 am42 °FPassing clouds.6 mph85%29.92 "Hg10 mi
4:56 am41 °FPassing clouds.5 mph86%29.90 "Hg10 mi
3:56 am42 °FMostly cloudy.6 mph85%29.89 "Hg10 mi
2:56 am42 °FOvercast.No wind85%29.87 "Hg10 mi
12:52 am43 °FPartly cloudy.5 mph81%29.86 "Hg10 mi
12:33 am43 °FMostly cloudy.5 mph87%29.85 "Hg10 mi
11:56 pm
Wed, Apr 26
43 °FPassing clouds.6 mph86%29.80 "Hg10 mi
11:22 pm43 °FOvercast.5 mph87%29.81 "Hg10 mi
10:56 pm44 °FMostly cloudy.8 mph85%29.77 "Hg10 mi
Weather by CustomWeather, © 2017

See weather overviewHow to use our weather pages